Location: Corcelles
(46.1547°N, 4.7234°E)
Time: 20:35:20
(UTC+00:00)

Daily predictions for brighter satellites

Satellite Brightness Start Highest point End
(mag) Time Altitude Azimuth Time Altitude Azimuth Time Altitude Azimuth
SPOT 3 Rocket 4.2 19:35:06 10° SE 19:39:51 40° ENE 19:44:38 10° N
USA 307 3.1 19:36:34 10° NW 19:40:50 71° NNE 19:45:07 10° ESE
S3M 4.2 19:34:42 10° S 19:41:04 82° W 19:47:25 10° N
Cosmos 1666 4.1 19:45:39 10° NNE 19:48:39 22° ENE 19:51:38 10° SE
Tianhe-1 2.9 19:49:19 10° SSW 19:51:12 15° SSE 19:53:06 10° ESE
IRS-1A Rocket 4.5 19:45:30 10° SSE 19:51:19 87° WSW 19:57:16 10° NNW
Cosmos 1812 3.5 19:48:58 10° SSE 19:52:25 33° E 19:55:55 10° NNE
OBJECT-B 2.1 19:50:00 10° S 19:53:04 40° W 19:56:10 10° NNW
USA 308 2.9 19:50:22 10° WNW 19:54:40 85° NNE 19:58:53 11° ESE
Cosmos 2315 Rocket 4.1 19:49:10 10° S 19:55:29 71° E 20:01:51 10° NNE
Cosmos 1833 Rocket 2.7 19:51:14 10° NNW 19:56:55 76° ENE 20:02:33 10° SSE
Cosmos 1242 Rocket 3.9 19:57:53 10° SSW 20:01:16 41° WNW 20:04:38 10° N
Cosmos 1782 2.9 19:58:02 10° S 20:02:01 83° W 20:06:01 10° N
Landsat 7 4.1 19:58:01 10° SSE 20:02:38 53° ENE 20:07:16 10° N
Cosmos 1515 Rocket 4.0 19:58:42 10° SSE 20:02:51 43° E 20:07:01 10° NNE
Resurs 01 Rocket 1.7 19:58:44 10° SSE 20:03:07 66° ENE 20:07:32 10° N
Cosmos 1777 Rocket 3.9 19:58:37 10° SSW 20:03:48 80° ESE 20:09:01 10° NNE
deb Kosmos-1763 4.1 20:00:21 10° NNW 20:03:52 59° ENE 20:07:01 12° SE
ISS -2.7 20:02:43 10° SSW 20:05:32 25° SE 20:08:22 10° E
BREEZE-M DEB (TANK) 2.4 20:03:33 10° WNW 20:05:48 36° N 20:07:46 10° ENE
Cosmos 1633 Rocket 3.3 20:02:26 10° NNW 20:06:51 72° W 20:11:14 10° S
Ariane Rocket 3.4 20:03:43 10° S 20:08:43 63° WSW 20:13:46 10° NNW
NOSS 3-4 (A) 4.0 20:04:22 10° NW 20:11:19 71° NE 20:18:18 13° SE
NOSS 3-4 (C) 4.0 20:04:29 10° NW 20:11:26 70° NE 20:18:24 13° SE
CZ-2C R/B 4.1 20:10:04 10° NNE 20:14:24 44° E 20:18:48 10° S
Cosmos 1328 Rocket 3.7 20:10:39 10° SSW 20:15:04 80° W 20:19:30 10° N
Meteor 1-5 Rocket 4.1 20:13:32 10° N 20:18:54 71° ENE 20:23:52 12° SSE
Cosmos 1500 3.2 20:15:38 10° NNW 20:19:23 78° W 20:23:06 10° S
Iridium 4 Rocket 4.2 20:16:22 11° SSE 20:21:45 46° E 20:27:21 10° NNE
EP 1 4.4 20:19:05 10° SSW 20:22:19 63° SE 20:25:00 10° NE
Cosmos 1470 Rocket 3.7 20:18:44 10° N 20:23:15 84° W 20:27:44 10° S
Meteor 1-11 Rocket 4.3 20:18:10 10° N 20:23:54 45° ENE 20:28:21 16° SE
ATLAS 2AS CENTAUR R/B 3.2 20:17:21 10° NW 20:24:39 54° NE 20:30:28 14° ESE
CARTOSAT-1 4.3 20:25:51 17° SE 20:28:43 38° ENE 20:32:44 10° N
Cosmos 158 Rocket 3.9 20:27:17 10° NNW 20:32:11 72° ENE 20:35:50 18° SSE
USA 305 3.4 20:28:38 10° WNW 20:32:46 50° SW 20:35:32 19° SSE
Cosmos 1933 Rocket 3.5 20:32:43 10° N 20:37:05 89° ENE 20:40:35 16° S
MetOp-B 4.2 20:32:27 13° SSE 20:37:20 86° WSW 20:42:44 10° NNW
BREEZE-M R/B 3.2 20:40:23 10° WNW 20:42:44 36° N 20:45:12 10° ENE
SJ 16-02 1.5 20:38:40 10° SSW 20:43:05 76° WNW 20:47:32 10° NNE
CREW DRAGON DEMO-1 DEB 4.2 20:41:57 10° W 20:44:02 21° SW 20:44:38 19° SSW
Cosmos 2082 Rocket 2.2 20:39:58 10° NNW 20:45:38 88° WSW 20:49:37 20° SSE
Meteor 1-10 Rocket 4.2 20:42:03 10° S 20:47:38 80° E 20:53:22 10° NNE
Milstar 3 4.5 20:34:31 10° WSW 20:47:54 32° S 20:53:33 19° SE
ARIANE 5 R/B 2.6 20:47:09 23° SSE 20:49:47 68° ENE 20:54:07 10° N
Cosmos 2084 Rocket 4.3 20:46:28 10° NNW 20:50:32 42° NE 20:53:10 20° ESE
Cosmos 1536 3.3 20:47:24 10° N 20:51:18 46° ENE 20:53:04 27° SE
USA 306 3.8 20:48:22 10° WNW 20:52:18 36° SW 20:54:24 22° S
Cosmos 44 3.7 20:51:09 10° NNW 20:56:36 65° NE 20:59:42 24° SE
Cosmos 1943 Rocket 2.8 20:55:13 23° SSE 20:57:51 34° ESE 21:02:51 10° NE
USA 245 2.5 20:59:37 44° SW 21:00:00 52° W 21:02:18 10° NNW
Cosmos 1271 Rocket 3.1 20:58:44 11° SSW 21:02:37 65° WNW 21:06:37 10° N
CZ-4C R/B 4.0 20:55:55 10° NW 21:02:45 39° WSW 21:09:35 13° S
SPOT 1/Viking Rocket 3.8 20:59:04 17° S 21:03:04 65° WSW 21:08:15 10° NNW
COSMOS 2406 4.5 20:59:11 10° NW 21:04:14 34° WSW 21:08:56 12° SSW
Cosmos 2112 Rocket 4.2 20:59:21 10° NNW 21:04:41 65° ENE 21:07:33 27° SE
Cosmos 2154 Rocket 4.0 21:03:21 10° N 21:09:43 81° E 21:13:44 24° SSE
Cosmos 2278 Rocket 3.5 21:04:45 10° SW 21:10:07 42° NW 21:15:30 10° NNE
Terra 2.1 21:07:58 29° SE 21:10:11 53° ENE 21:14:49 10° N
JB-3 4.2 21:08:01 10° NNE 21:11:55 90° SW 21:14:01 25° SSW
ERS-1 Rocket 2.9 21:09:37 28° SSE 21:12:20 80° ENE 21:17:24 10° NNW
Cosmos 1900 4.3 21:08:41 10° SSW 21:13:44 69° ESE 21:18:46 10° NE
Cosmos 2369 Rocket 3.2 21:14:38 24° ESE 21:15:27 25° ESE 21:19:59 10° NE
Spot 2 Rocket 3.7 21:12:45 22° S 21:15:57 65° WSW 21:20:59 10° NNW
Cosmos 2074 Rocket 4.4 21:09:58 10° NNW 21:16:12 63° W 21:21:10 16° S
Cosmos 2184 Rocket 4.3 21:10:11 10° NNW 21:16:18 64° W 21:21:02 17° S
Nadezhda 1 Rocket 3.9 21:11:35 17° S 21:16:39 85° E 21:22:54 10° N
Cosmos 1937 Rocket 3.6 21:15:45 29° SSE 21:18:06 51° ESE 21:23:08 10° NNE
USA 307 4.4 21:17:02 10° WNW 21:20:30 24° SW 21:21:41 21° SSW
Cosmos 1544 2.9 21:22:49 10° N 21:26:28 86° E 21:27:15 53° SSE
Tianhe-1 3.4 21:24:23 10° WSW 21:25:07 15° SW 21:25:07 15° SW
Cosmos 1680 Rocket 3.7 21:25:12 10° NNW 21:30:30 68° WSW 21:33:00 32° S
ERBS 2.5 21:29:57 10° NW 21:33:14 61° NE 21:33:40 54° ENE
Cosmos 858 Rocket 4.4 21:32:49 30° S 21:35:22 69° ESE 21:40:35 10° NNE
SPOT 5 3.3 21:33:21 29° S 21:35:57 67° WSW 21:41:17 10° NNW
Meteor 1-27 Rocket 4.1 21:31:40 15° SSW 21:36:36 68° WNW 21:42:32 10° N
Cosmos 967 Rocket 4.4 21:31:23 10° SSW 21:37:39 87° ESE 21:43:58 10° NE
Cosmos 2228 Rocket 4.1 21:34:56 15° SW 21:38:21 44° WNW 21:42:41 10° N
Resurs 01 Rocket 4.2 21:37:48 10° WSW 21:40:04 14° W 21:42:20 10° WNW
Cosmos 1862 Rocket 3.9 21:41:00 43° ESE 21:41:31 45° E 21:45:40 10° NNE
ISS -3.3 21:38:49 10° WSW 21:42:09 62° NNW 21:45:31 10° ENE
H-2A R/B 3.3 21:40:10 10° NNE 21:44:22 88° E 21:45:34 46° SSW
Cosmos 1461 3.0 21:47:22 31° SSW 21:49:36 80° ESE 21:54:15 10° NE
Cosmos 2366 rocket 4.2 21:44:56 10° N 21:51:03 56° ENE 21:53:25 36° SE
Cosmos 2181 Rocket 4.1 21:48:58 37° SSE 21:51:17 59° E 21:57:17 10° NNE
Cosmos 1607 4.5 21:50:11 36° SE 21:51:35 41° ESE 21:57:36 10° NE
Meteor 1-19 Rocket 4.2 21:50:33 42° SSE 21:52:07 58° E 21:57:26 10° NNE
Cosmos 1743 2.9 21:48:39 10° NNW 21:52:30 64° W 21:53:10 53° SW
Cosmos 1238 Rocket 3.5 21:48:20 10° N 21:54:15 78° E 21:55:49 46° SSE
Cosmos 489 Rocket 4.4 21:51:35 10° NNW 21:57:52 81° ENE 22:00:19 40° SSE
Gbstr 26 Del rocket 4.0 21:53:08 10° WNW 22:00:39 77° SSW 22:03:20 38° SE
Cosmos 372 Rocket 3.8 22:01:37 48° S 22:02:57 71° ESE 22:08:02 10° NNE
Meteor 2-4 Rocket 4.2 22:02:15 38° SE 22:03:25 43° E 22:08:41 10° NNE
Cosmos 1898 Rocket 4.3 21:59:10 12° SW 22:03:58 50° WNW 22:09:11 10° NNE
Cosmos 1707 Rocket 4.1 22:02:20 34° SW 22:03:58 55° WNW 22:08:20 10° N
Lacrosse 5 4.2 22:07:06 10° E 22:07:06 10° E 22:07:11 10° E
Cosmos 1340 Rocket 3.9 22:01:44 10° NNW 22:05:29 36° W 22:06:27 31° SW
ATLAS CENTAUR R/B 3.1 22:08:51 18° ENE 22:08:51 18° ENE 22:10:09 10° NE
Okean 1 3.3 22:06:42 65° SW 22:07:11 78° W 22:11:11 10° N
Cosmos 1818 3.8 22:03:08 10° NW 22:08:31 57° WSW 22:09:54 44° S
Cosmos 2341 Rocket 4.2 22:04:48 10° NNW 22:11:10 70° W 22:13:55 36° SSW
Cosmos 2297 4.5 22:08:11 10° SW 22:13:42 51° WNW 22:19:15 10° NNE
BREEZE M DEB (TANK) 4.3 22:11:55 10° W 22:12:04 11° W 22:12:04 11° W
ATLAS 2AS CENTAUR R/B 3.5 22:08:46 10° NW 22:15:24 40° WSW 22:17:54 30° SSW
Cosmos 2218 Rocket 4.0 22:13:00 10° N 22:19:20 89° W 22:21:36 44° S
ALOS 2 3.5 22:26:55 34° E 22:27:27 36° ENE 22:31:28 10° N
Cosmos 2082 Rocket 4.4 22:26:12 10° WNW 22:28:50 14° W 22:31:28 10° SW
Cosmos 2150 Rocket 4.2 22:30:06 52° SE 22:30:34 53° ESE 22:35:43 10° NNE
Cosmos 1733 Rocket 3.9 22:28:29 10° NNW 22:32:30 38° W 22:33:08 36° WSW
SL-8 Rocket 4.3 22:28:01 10° NNW 22:34:13 59° W 22:36:32 38° SSW
Nadezhda 3 Rocket 4.4 22:33:54 41° SE 22:35:19 48° E 22:41:13 10° NNE
Cosmos 468 4.5 22:31:56 10° NNW 22:37:13 76° ENE 22:38:11 59° SE
Cosmos 1125 Rocket 3.7 22:40:56 51° ESE 22:41:09 52° ESE 22:46:13 10° NNE
Gblst 52 Del rocket 4.4 22:34:22 10° WNW 22:41:18 67° SW 22:42:45 51° SSE
Cosmos 1943 Rocket 3.3 22:36:39 12° WSW 22:41:30 41° NW 22:46:47 10° NNE
Okean 3 4.4 22:44:16 36° ENE 22:44:16 36° ENE 22:47:43 10° NNE
Cosmos 1975 3.4 22:41:15 10° NNW 22:44:59 49° W 22:44:59 49° W
Terra 3.7 22:46:51 17° WSW 22:48:14 19° W 22:51:38 10° NW
Cosmos 1908 Rocket 3.6 22:47:07 10° NNW 22:51:35 66° W 22:51:44 66° WSW
Cosmos 1656 Rocket 3.5 22:51:36 56° SSW 22:52:50 89° WNW 22:58:25 10° NNE
Cosmos 44 Rocket 3.8 22:48:08 10° NNW 22:53:20 59° NE 22:54:36 46° ESE
Cosmos 1356 Rocket 3.8 22:51:29 10° N 22:55:40 56° ENE 22:55:40 56° ENE
RESURS DK-1 2.6 22:51:48 10° NNW 22:55:31 61° WNW 22:55:31 61° WNW
Cosmos 2344 4.4 22:49:04 10° NW 22:58:17 78° NE 23:07:10 23° SE
Cosmos 2369 Rocket 2.7 22:56:21 29° WSW 22:59:06 54° WNW 23:04:40 10° NNE
Cosmos 2242 Rocket 3.6 22:59:33 70° W 22:59:43 72° W 23:04:13 10° N
Cosmos 1867 3.8 23:00:32 35° WSW 23:02:47 66° NW 23:08:16 10° NNE
Okean 2 Rocket 4.1 23:03:34 10° N 23:07:37 35° ENE 23:07:49 35° E
Meteor 1-12 Rocket 4.2 23:05:24 10° N 23:11:17 88° E 23:12:22 61° SSE
COSMOS 2455 4.2 23:08:40 10° NNW 23:14:09 35° NE 23:18:25 15° ESE
Cosmos 1048 Rocket 4.4 23:14:00 10° NNW 23:19:05 48° WSW 23:19:24 47° WSW
ISS -1.8 23:16:19 10° WNW 23:19:23 31° N 23:22:26 10° ENE
Cosmos 1703 Rocket 4.2 23:20:18 45° W 23:20:35 46° WNW 23:24:51 10° N
Okean 1-7 3.6 23:20:55 45° W 23:21:02 45° WNW 23:25:11 10° N
Cosmos 1782 Rocket 3.9 23:19:36 10° NNW 23:23:47 54° W 23:23:47 54° W
Cosmos 1934 Rocket 3.9 23:22:45 10° N 23:28:54 77° E 23:30:16 55° SSE
Cosmos 1805 3.7 23:26:33 10° N 23:29:50 59° NNE 23:29:50 59° NNE
SL-27 R/B 4.5 23:29:01 10° NW 23:30:33 22° WNW 23:30:33 22° WNW
Meteor 1-15 Rocket 4.2 23:28:20 10° N 23:34:05 84° ENE 23:35:10 61° SSE
Cosmos 1821 Rocket 4.3 23:29:23 10° NNW 23:35:37 56° W 23:37:08 45° SW
SeaSat 1 3.4 23:31:14 10° NE 23:35:22 33° ESE 23:35:22 33° ESE
Cosmos 1269 Rocket 4.0 23:31:20 10° NNW 23:36:39 76° ENE 23:37:26 63° SE
Cosmos 1066 Rocket 4.2 23:35:52 62° SSW 23:36:53 83° W 23:42:32 10° N
Cosmos 1378 4.4 23:43:31 36° NW 23:43:31 36° NW 23:46:29 10° N
Cosmos 1726 4.1 23:41:13 10° NNE 23:44:06 21° ENE 23:44:07 21° ENE
NOSS 2-1 (E) 4.2 23:39:18 10° NW 23:44:23 84° SW 23:46:04 52° SSE
ATLAS CENTAUR R/B 2.8 23:44:57 26° WNW 23:45:40 28° NW 23:49:01 10° NNE
Lacrosse 5 1.7 23:46:15 79° S 23:46:25 81° SE 23:51:32 10° NE
Thor Agena Rocket 3.4 23:41:25 10° NNE 23:46:43 90° SE 23:47:25 69° SSW
Cosmos 1766 3.7 23:43:29 10° N 23:46:52 62° NNE 23:46:52 62° NNE
Cosmos 2227 Rocket 3.8 23:43:37 10° N 23:48:32 29° NE 23:53:01 12° ESE
Cosmos 2297 Rocket 3.4 23:45:48 10° NNW 23:51:04 38° NE 23:54:30 19° ESE
